User: anonymous
Location: Brno
(49.2000°N, 16.6330°E)
Time: 01:45:04
(UTC+02:00)
Language:

BREEZE M DEB (TANK) - Orbit

View from above orbital plane
View from above orbital plane
View from above satellite
View from above satellite

Ground track
Ground track

The orbit data is extracted from the following two-line orbital elements,

1 28359U 04022B   14261.09775407  .00003202  00000-0  48110-3 0  2502
2 28359 049.5277 322.0840 4708807 100.2737 353.4802 06.11715253223391
Epoch (UTC): 18 September 2014 02:20:45
Eccentricity: 0.4708807
inclination: 49.5277°
perigee height: 304 km
apogee height: 12197 km
right ascension of ascending node: 322.0840°
argument of perigee: 100.2737°
revolutions per day: 6.11715253
mean anomaly at epoch: 353.4802°
orbit number at epoch: 22339

The dashed part of the orbit path shows where the satellite is in the earth's shadow,  

DLR